Location: Cloverdale
(40.8218°N, 81.4887°W)
Time: 00:34:54
(UTC+00:00)

Daily predictions for brighter satellites

Satellite Brightness Start Highest point End
(mag) Time Altitude Azimuth Time Altitude Azimuth Time Altitude Azimuth
Cosmos 1515 Rocket 3.8 01:25:01 10° SSE 01:29:10 49° E 01:33:21 10° NNE
Cosmos 1707 3.4 01:27:29 10° SSE 01:30:40 31° E 01:33:53 10° NNE
Cosmos 1633 Rocket 3.2 01:28:05 10° N 01:32:29 81° W 01:36:49 10° S
PSLV R/B 3.5 01:29:57 10° SSE 01:33:30 81° ENE 01:37:01 10° N
SL-24 R/B 4.3 01:28:49 10° SSE 01:33:43 69° ENE 01:37:59 10° N
Cosmos 676 Rocket 4.4 01:29:15 10° S 01:34:15 43° ESE 01:39:15 10° NNE
CARTOSAT-1 3.8 01:32:02 10° S 01:36:16 70° WSW 01:40:32 10° NNW
CZ-4C R/B 4.0 01:33:19 10° NNE 01:37:12 38° E 01:41:02 10° SSE
DELTA 2 DEB (DPAF) 4.1 01:33:09 10° NNE 01:37:22 84° WNW 01:41:35 10° SSW
Cosmos 1190 Rocket 4.0 01:32:18 10° SSW 01:37:35 79° ESE 01:42:54 10° NNE
Cosmos 1697 Rocket 4.1 01:34:18 10° NW 01:39:21 35° WSW 01:44:22 10° S
SPOT 5 3.4 01:35:41 10° SE 01:39:35 35° ENE 01:43:33 10° N
Cosmos 1553 Rocket 4.3 01:35:22 10° N 01:41:24 52° E 01:47:30 10° SSE
CSL-04 Rocket 4.1 01:40:17 10° S 01:45:31 64° WSW 01:50:50 10° NNW
Okean O Rocket 2.0 01:42:30 10° S 01:46:52 66° WSW 01:51:14 10° NNW
Cosmos 1470 Rocket 3.5 01:42:29 10° N 01:46:52 89° E 01:51:10 10° S
Tiangong -2.1 01:44:32 10° W 01:47:41 65° SSW 01:50:36 11° ESE
SL-4 R/B 4.5 01:46:37 10° WNW 01:49:33 21° NNW 01:52:38 10° NE
Cosmos 1766 3.7 01:50:43 10° NNW 01:54:25 58° W 01:58:05 10° S
ERS-1 Rocket 3.8 01:50:48 11° SE 01:55:10 35° ENE 01:59:44 10° N
COSMOS 2406 3.8 01:50:48 10° SW 01:56:30 63° WNW 02:02:13 10° NNE
Cosmos 1400 Rocket 3.9 01:53:37 11° SE 01:56:35 25° E 01:59:47 10° NE
Cosmos 1980 Rocket 2.8 01:51:50 10° NNW 01:57:23 55° WSW 02:02:52 10° S
Cosmos 1674 3.0 01:54:52 10° SSW 01:58:17 60° W 02:01:43 10° N
Cosmos 2322 Rocket 3.7 01:54:02 10° N 01:58:36 24° NE 02:03:09 10° ESE
Cosmos 1763 Rocket 3.5 01:54:38 10° NNW 01:59:54 84° WSW 02:05:03 10° SSE
ATLAS CENTAUR R/B 2.1 02:01:45 11° SSE 02:04:22 23° ESE 02:07:12 10° ENE
USA 234 3.2 01:58:12 10° NE 02:04:45 75° SE 02:11:17 10° SW
Spot 2 Rocket 4.4 02:02:19 13° SE 02:06:11 34° ENE 02:10:43 10° N
Cosmos 1441 Rocket 3.3 02:04:51 10° N 02:08:24 53° E 02:11:03 17° SSE
Cosmos 2278 4.0 02:05:02 10° NNW 02:10:41 58° ENE 02:15:10 16° SE
Cosmos 1933 Rocket 3.5 02:06:37 10° N 02:11:05 82° E 02:15:12 12° S
Meteor 1-13 Rocket 4.3 02:06:15 10° S 02:12:01 70° E 02:17:42 10° NNE
Resurs 01 Rocket 3.7 02:12:24 10° SSW 02:15:59 24° W 02:19:35 10° NW
Cosmos 1908 3.0 02:13:02 10° N 02:16:39 75° E 02:19:19 17° SSE
MOS 1 4.4 02:11:24 10° S 02:17:02 76° WSW 02:22:42 10° NNW
Terra 2.2 02:16:11 17° SE 02:19:34 49° ENE 02:24:07 10° N
Cosmos 2219 Rocket 4.2 02:20:28 10° N 02:24:01 17° NE 02:27:32 10° E
Cosmos 2237 4.3 02:20:25 10° NNW 02:26:09 69° ENE 02:30:11 20° SE
Cosmos 1470 3.3 02:22:35 10° NNW 02:26:11 51° W 02:29:33 11° S
ARGOS Delta rocket 3.8 02:23:05 13° S 02:27:06 75° W 02:31:31 10° NNW
Ariane Rocket 3.3 02:27:25 20° SE 02:30:48 53° ENE 02:35:45 10° N
Cosmos 468 Rocket 4.2 02:25:45 10° NNW 02:30:56 67° WSW 02:35:02 16° S
SL-27 R/B 2.7 02:38:03 32° E 02:38:03 32° E 02:40:23 10° NE
SL-14 R/B 3.4 02:37:34 27° SSE 02:39:15 48° E 02:42:55 10° NNE
Cosmos 1707 Rocket 4.0 02:38:10 25° SSE 02:40:19 44° E 02:44:33 10° NNE
Cosmos 2315 Rocket 4.3 02:34:27 10° N 02:40:42 55° E 02:44:42 23° SSE
SJ 16-02 2.3 02:40:03 25° ESE 02:40:59 27° E 02:44:38 10° NE
Cosmos 1850 Rocket 3.9 02:38:37 10° S 02:43:49 70° ESE 02:49:00 10° NNE
Landsat 4 3.5 02:44:04 34° SE 02:45:19 62° ENE 02:48:44 10° N
ATLAS 2AS CENTAUR R/B 3.4 02:38:59 10° NNW 02:45:25 42° NE 02:50:04 18° ESE
Meteor 1-4 Rocket 4.0 02:49:24 18° ENE 02:49:24 18° ENE 02:50:56 10° NE
Cosmos 2360 Rocket 2.8 02:43:45 10° NNW 02:49:11 44° ENE 02:52:15 24° ESE
Cosmos 1346 Rocket 3.3 02:46:29 10° N 02:50:09 40° ENE 02:51:15 32° ESE
Meteor 1-23 Rocket 4.2 02:47:06 13° S 02:52:16 90° W 02:58:02 10° N
RESURS DK-1 2.4 02:50:01 10° NNW 02:54:04 67° ENE 02:55:35 36° SE
SPOT 3 Rocket 3.5 02:51:36 26° SSE 02:54:34 81° ENE 02:59:46 10° NNW
Meteor 1-15 Rocket 4.3 02:51:52 10° NNW 02:57:26 75° W 03:01:06 22° S
SL-16 R/B 2.3 02:54:24 10° NNW 03:00:05 74° WSW 03:03:14 27° S
Cosmos 968 Rocket 3.4 02:57:17 21° S 03:00:38 67° ESE 03:05:47 10° NNE
Cosmos 2333 Rocket 2.6 02:56:40 10° NNW 03:02:18 52° ENE 03:05:07 28° SE
MOS 1 Rocket 3.7 02:59:26 25° S 03:02:44 78° WSW 03:08:05 10° NNW
USA 281 4.5 02:58:49 15° ESE 03:03:06 29° NE 03:08:34 10° N
Cosmos 1741 Rocket 4.0 02:58:34 10° SSW 03:03:48 83° WNW 03:09:08 10° NNE
Cosmos 1733 Rocket 3.1 02:59:53 10° N 03:04:17 64° E 03:05:48 38° SSE
SeaSat 1 2.8 03:02:22 27° S 03:04:57 58° WSW 03:09:48 10° NW
Cosmos 1758 3.2 03:05:07 10° N 03:09:02 84° W 03:10:17 42° S
Cosmos 1455 3.9 03:07:54 10° NNE 03:10:21 18° ENE 03:10:21 18° ENE
Atlas Centaur 2 3.6 03:04:03 10° WSW 03:11:23 36° S 03:14:19 28° SSE
Okean 1-7 3.6 03:11:24 36° ESE 03:12:01 38° E 03:16:01 10° NNE
Cosmos 1833 4.1 03:08:31 18° SSW 03:12:45 77° ESE 03:18:22 10° NNE
Cosmos 2228 Rocket 3.7 03:18:36 22° SSW 03:21:26 56° W 03:25:56 10° N
Cosmos 1241 Rocket 4.3 03:18:42 17° SSW 03:23:33 74° ESE 03:29:46 10° NE
Tiangong 0.4 03:21:59 10° WSW 03:22:45 13° WSW 03:22:45 13° WSW
Spot 1 4.4 03:21:16 10° N 03:25:50 73° WNW 03:28:28 26° SSW
Meteor 1-16 Rocket 4.4 03:20:04 10° N 03:26:00 67° E 03:28:18 38° SSE
Cosmos 1356 Rocket 4.3 03:25:56 22° SW 03:28:20 46° WNW 03:32:23 10° N
Cosmos 2333 4.3 03:26:21 10° NNW 03:32:08 70° ENE 03:34:15 40° SE
MetOp-A 4.0 03:30:40 41° S 03:32:33 86° WSW 03:37:50 10° NNW
Okean 2 3.2 03:36:15 67° SE 03:36:32 71° E 03:40:32 10° NNE
Meteor 2-20 Rocket 4.4 03:32:34 10° N 03:38:51 77° E 03:41:04 41° SSE
ATLAS CENTAUR R/B 3.3 03:39:00 10° WSW 03:41:54 24° NW 03:44:52 10° N
Cosmos 1300 4.0 03:39:26 10° NNW 03:42:34 29° W 03:43:15 27° WSW
Cosmos 2322 Rocket 2.7 03:37:26 10° NNW 03:42:56 52° WSW 03:44:58 35° SSW
Cosmos 2297 Rocket 3.9 03:47:54 17° E 03:47:54 17° E 03:50:56 10° ENE
Aureole 3 4.3 03:48:02 33° WSW 03:49:15 44° WNW 03:53:39 10° N
Cosmos 1315 Rocket 2.8 03:49:43 66° SW 03:50:07 74° W 03:54:08 10° N
PSLV R/B 4.5 03:46:41 10° NNE 03:50:01 42° ENE 03:50:01 42° ENE
Cosmos 1953 2.1 03:50:57 10° N 03:54:38 79° NE 03:54:38 79° NE
Cosmos 1703 Rocket 3.4 03:55:52 71° SSE 03:56:16 79° E 04:00:44 10° N
Terra 4.1 03:54:54 12° SW 03:57:25 17° W 04:00:25 10° NW
COSMOS 2428 3.4 04:02:03 10° NNW 04:07:32 46° ENE 04:09:13 36° ESE
Cosmos 2219 Rocket 2.1 04:02:58 10° NNW 04:08:40 83° WSW 04:09:56 56° S
CZ-2C R/B 3.6 04:05:03 10° N 04:09:27 76° WNW 04:10:01 65° SW
Cosmos 2242 Rocket 4.4 04:10:52 39° E 04:10:52 39° E 04:14:51 10° NNE
Cosmos 371 Rocket 4.2 04:12:01 34° E 04:12:01 34° E 04:15:46 10° NE
BlueWalker 3 2.6 04:15:31 49° NNE 04:15:31 49° NNE 04:18:25 10° NE
SJ 16-02 3.3 04:16:45 15° WSW 04:19:15 25° WNW 04:22:51 10° N
H-2A R/B 2.7 04:22:54 62° ENE 04:22:54 62° ENE 04:27:04 10° N
Cosmos 1709 Rocket 4.1 04:23:45 50° SE 04:25:09 62° E 04:31:26 10° NNE
COSMOS 2455 2.8 04:24:43 57° SSE 04:25:32 63° ESE 04:31:30 10° NE
CZ-4C R/B 2.2 04:28:06 47° E 04:28:06 47° E 04:32:21 10° NE
ARIANE 5 R/B 2.9 04:31:12 56° W 04:31:12 56° W 04:35:23 10° NNW
DNEPR-1 R/B 4.2 04:24:58 10° NW 04:31:13 63° WSW 04:31:50 58° SSW
Spot 4 3.8 04:31:54 67° E 04:32:12 69° ENE 04:36:59 10° N
Cosmos 2360 Rocket 3.6 04:28:17 10° NW 04:32:51 26° WSW 04:34:00 24° WSW
ATLAS 2AS CENTAUR R/B 3.2 04:30:03 10° NW 04:36:14 40° WSW 04:37:29 37° SW
Cosmos 1703 4.3 04:40:36 37° NE 04:40:36 37° NE 04:43:05 10° NNE
Cosmos 1570 Rocket 3.9 04:35:14 10° NNW 04:40:35 73° WSW 04:41:05 67° SSW
Cosmos 1455 4.1 04:41:58 10° NW 04:44:05 21° WNW 04:44:05 21° WNW
Cosmos 2333 Rocket 3.8 04:41:49 10° NW 04:46:09 22° W 04:47:07 21° WSW
USA 281 3.4 04:45:41 48° SSW 04:47:12 58° WSW 04:53:41 10° NNW
PSLV R/B 4.4 04:46:54 10° NNE 04:50:04 39° ENE 04:50:04 39° ENE
CZ-2C R/B 3.6 04:50:23 50° SW 04:51:31 65° W 05:07:41 10° N
Cosmos 2098 Rocket 4.3 04:45:54 10° N 04:52:26 58° E 04:53:52 48° SE
GP-B 4.4 04:49:07 10° NNW 04:52:57 30° W 04:53:24 29° W
Cosmos 158 Rocket 3.8 04:47:41 10° NNW 04:52:59 81° WSW 04:53:14 77° SSW
Cosmos 1782 Rocket 4.4 04:54:25 10° NNW 04:58:10 42° W 04:58:10 42° W
Cosmos 304 Rocket 3.7 05:01:27 84° N 05:01:27 84° N 05:06:06 10° NNE
Cosmos 2237 Rocket 2.6 05:02:33 10° NNW 05:08:08 56° ENE 05:09:21 46° ESE
SL-4 R/B 3.4 05:05:13 10° NW 05:09:02 36° NNE 05:10:26 28° ENE
Meteor 1-24 Rocket 3.7 05:08:46 67° SSW 05:09:36 84° W 05:15:19 10° N
Cosmos 2322 4.2 05:04:54 10° NW 05:10:15 44° WSW 05:10:29 44° WSW
Cosmos 2227 Rocket 2.6 05:10:42 46° ESE 05:10:42 46° ESE 05:16:04 10° NE
Cosmos 773 Rocket 3.8 05:06:00 10° NNW 05:11:10 78° ENE 05:11:26 75° ESE
Cosmos 2208 Rocket 4.4 05:09:14 10° NNW 05:14:06 47° W 05:14:06 47° W
H-2A R/B 2.7 05:11:04 10° NNE 05:14:25 46° ENE 05:14:25 46° ENE
Cosmos 2084 Rocket 4.1 05:18:12 49° NE 05:18:12 49° NE 05:21:20 10° NE
Cosmos 1503 Rocket 4.1 05:20:32 63° WSW 05:21:09 69° WNW 05:26:27 10° NNE
Cosmos 1980 3.7 05:15:35 10° NNW 05:21:16 76° ENE 05:22:05 64° SE
Cosmos 2151 Rocket 3.9 05:17:08 10° N 05:21:05 59° NE 05:21:05 59° NE
Cosmos 1825 3.8 05:23:12 28° NE 05:23:12 28° NE 05:25:04 10° NNE
Cosmos 1777 Rocket 3.9 05:21:43 76° WSW 05:22:05 81° WNW 05:27:24 10° NNE
ALOS 2 3.3 05:23:09 44° WNW 05:23:09 44° WNW 05:26:49 10° NNW
SL-23 DEB 4.5 05:23:48 70° WSW 05:24:25 89° NW 05:32:15 10° NE
GEOS 3 Rocket 3.5 05:20:14 10° NE 05:25:12 65° ESE 05:25:12 65° ESE
Okean 2 Rocket 3.3 05:23:47 10° N 05:27:55 65° NE 05:27:55 65° NE
BREEZE-M DEB (TANK) 4.5 05:22:34 10° WNW 05:30:17 35° N 05:33:13 10° ENE
Cosmos 2181 Rocket 3.8 05:24:08 10° N 05:30:21 89° WSW 05:31:22 64° S
Cosmos 2297 Rocket 2.4 05:29:40 52° WSW 05:30:45 63° WNW 05:36:22 10° NNE
Cosmos 1674 Rocket 3.7 05:32:54 69° N 05:32:54 69° N 05:36:45 10° N
Cosmos 2219 3.9 05:33:16 38° ESE 05:33:20 38° ESE 05:38:29 10° NE
Cosmos 1378 Rocket 3.8 05:34:08 65° NNW 05:34:08 65° NNW 05:38:01 10° N
CENTAUR R/B 2.4 05:33:38 57° SE 05:33:51 57° ESE 05:40:18 10° NE
CZ-3 Stage 3 4.3 05:17:19 10° W 05:35:42 32° SW 05:35:53 32° SW
Cosmos 2074 Rocket 3.9 05:38:32 62° SSE 05:39:37 81° E 05:45:50 10° N
Cosmos 1025 Rocket 3.9 05:40:57 40° ENE 05:40:57 40° ENE 05:44:35 10° NNE
Cosmos 2221 Rocket 3.7 05:43:28 70° NW 05:43:28 70° NW 05:47:33 10° N
Meteor 2-5 Rocket 4.5 05:41:48 38° WSW 05:43:07 44° WNW 05:48:43 10° N
COSMOS 2428 4.1 05:46:54 10° NW 05:51:11 25° W 05:51:11 25° W
Sich 1 Rocket 3.9 05:48:10 10° NNW 05:51:57 57° NW 05:51:57 57° NW
Cosmos 405 Rocket 4.4 05:53:03 10° NNW 05:55:13 26° NW 05:55:13 26° NW
Cosmos 1898 Rocket 4.2 06:01:58 38° ESE 06:02:14 39° ESE 06:07:00 10° NE
Cosmos 2263 Rocket 2.5 06:03:48 46° ESE 06:04:17 48° ESE 06:09:37 10° NE
Resurs 1-4 Rocket 4.3 06:01:59 10° ENE 06:04:36 14° E 06:06:19 12° ESE
SL-12 R/B(2) 4.2 06:09:01 41° SW 06:12:22 84° NW 06:21:55 10° NE
CZ-4C R/B 4.0 06:13:09 13° W 06:16:09 23° NW 06:20:33 10° NNE
Nadezhda 3 Rocket 3.9 06:12:34 10° N 06:18:52 81° W 06:20:15 56° S
NOSS 3-2 (A) 2.9 06:18:58 70° S 06:19:31 80° ESE 06:25:25 10° NE
NOSS 3-2 (C) 3.8 06:25:20 36° SE 06:25:45 37° ESE 06:31:00 10° NE
Okean 1 Rocket 3.9 06:24:26 10° NNW 06:27:57 38° WNW 06:27:57 38° WNW
Nimbus 7 Rocket 4.4 06:24:44 10° N 06:30:49 75° WNW 06:32:23 51° SW
In-Cosmos 22 Rocket 4.2 06:35:13 55° S 06:36:33 83° E 06:42:24 10° N
Cosmos 292 Rocket 3.7 06:38:10 67° WSW 06:38:35 72° WNW 06:43:23 10° NNE
SL-16 R/B 2.1 06:39:20 10° NNW 06:45:04 81° WSW 06:46:35 50° S
SL-4 R/B 4.0 06:43:52 10° WNW 06:45:06 18° WNW 06:45:06 18° WNW
BREEZE-M DEB (TANK) 3.9 06:49:10 19° E 06:49:10 19° E 06:50:41 10° E
Cosmos 1975 Rocket 3.1 06:49:56 63° W 06:50:03 63° W 06:54:24 10° N
H-2A R/B 4.3 06:48:19 10° NNW 06:50:24 14° WNW 06:51:12 13° WNW
Cosmos 2237 Rocket 3.8 06:47:41 10° NW 06:51:07 20° W 06:51:07 20° W
Cosmos 2082 3.7 06:51:06 50° SW 06:52:32 73° WNW 06:58:10 10° NNE
Cosmos 2227 Rocket 3.7 06:52:28 20° W 06:54:54 27° NW 06:59:41 10° N
IDEFIX/ARIANE 42P 3.0 06:50:44 10° NNE 06:55:53 55° E 06:57:28 39° SSE
SL-8 Rocket 3.9 06:57:09 45° SSW 06:59:13 85° W 07:05:26 10° N
CZ-2C R/B 3.6 06:55:47 18° SE 06:59:23 43° ENE 07:04:27 10° N
H-2A R/B 4.0 06:55:37 10° NNE 06:59:27 44° E 06:59:56 42° ESE
Cosmos 1943 4.3 06:54:24 10° N 06:59:44 42° ENE 07:05:01 10° SE
CZ-2C R/B 4.2 06:56:43 10° NNE 07:01:39 36° E 07:03:52 25° SE
CZ-2D R/B 2.8 07:00:25 10° NNE 07:05:33 47° E 07:07:38 31° SSE
Cosmos 1455 Rocket 3.8 07:01:38 10° NNW 07:05:42 38° W 07:05:42 38° W
Meteor 1-11 4.3 07:04:41 45° SW 07:06:25 70° W 07:12:14 10° N
COBE Rocket 3.9 07:01:14 10° N 07:06:25 85° WNW 07:07:50 50° SSW
Cosmos 858 Rocket 4.4 07:12:16 48° SSW 07:13:45 82° WNW 07:19:00 10° NNE
Cosmos 2219 4.4 07:15:09 23° W 07:17:30 31° WNW 07:22:28 10° N
Cosmos 1959 Rocket 4.5 07:16:53 38° SSW 07:19:27 75° W 07:25:49 10° N
Cosmos 1536 Rocket 3.7 07:18:23 45° SSE 07:19:39 69° E 07:24:03 10° NNE
Cosmos 1606 2.6 07:16:34 10° NNW 07:19:53 60° WNW 07:19:53 60° WNW
Cosmos 1727 Rocket 4.5 07:14:22 10° N 07:20:38 59° E 07:25:41 16° SSE
Cosmos 1867 4.0 07:20:35 34° S 07:22:31 51° ESE 07:27:48 10° NE
NPP 3.6 07:17:15 10° NNE 07:22:40 88° WNW 07:24:46 39° SSW
CENTAUR R/B 4.0 07:20:44 14° W 07:24:57 30° NW 07:31:02 10° NNE
Cosmos 2227 4.2 07:24:37 38° SSW 07:26:56 82° ESE 07:32:42 10° NNE
Cosmos 1900 4.3 07:25:54 43° SW 07:27:37 82° WNW 07:32:44 10° NNE
Iridium 921 4.4 07:29:09 62° W 07:29:09 62° W 07:32:34 10° N
Cosmos 2341 Rocket 4.5 07:27:49 32° SW 07:30:09 45° WNW 07:36:06 10° N
ADEOS II 2.6 07:26:21 10° NNE 07:31:29 54° E 07:34:19 26° SSE
USA 238 DEB 3.6 07:28:49 33° S 07:31:38 66° ESE 07:38:09 10° NE
USA 238 3.6 07:28:52 33° S 07:31:40 65° ESE 07:38:12 10° NE
Helios 1A Rocket 4.4 07:33:25 21° WNW 07:33:25 21° WNW 07:35:42 10° NW
Cosmos 923 Rocket 4.2 07:31:08 10° NNW 07:36:12 50° WSW 07:37:48 37° SSW
Cosmos 1844 4.4 07:33:31 25° SSE 07:36:36 48° ESE 07:42:09 10° NE
Cosmos 1461 3.9 07:36:27 28° W 07:37:33 33° NW 07:41:07 10° NNE
Cosmos 1937 Rocket 4.4 07:38:33 27° WSW 07:40:35 37° WNW 07:45:28 10° N
MOZ.5/SAFIR/RUBIN 5/SL-8 4.4 07:39:56 35° WSW 07:40:38 37° W 07:44:56 10° NNW
Meteor 2-13 Rocket 4.4 07:35:47 10° N 07:41:54 86° E 07:46:27 19° S
Resurs 1-4 Rocket 2.1 07:39:36 10° N 07:44:52 72° WNW 07:47:22 32° SSW
Cosmos 2263 Rocket 3.7 07:45:28 17° W 07:48:24 25° NW 07:53:00 10° N
AQUA 3.9 07:52:28 10° NNE 07:57:12 75° ESE 08:00:01 24° S
Cosmos 1821 Rocket 4.2 08:00:02 26° SW 08:03:24 54° W 08:09:25 10° N
Meteor 1-28 Rocket 3.2 08:01:25 19° SSE 08:03:50 74° ENE 08:07:22 10° N
SL-24 DEB 4.2 07:59:30 10° N 08:04:05 84° E 08:07:08 21° S
Meteor 1-27 4.4 08:00:03 10° NNW 08:05:46 59° W 08:09:44 20° SSW
Cosmos 1844 Rocket 2.6 08:04:20 25° SSW 08:07:40 81° WNW 08:13:17 10° NNE
Cosmos 1892 Rocket 3.9 08:05:35 18° S 08:08:43 64° E 08:13:06 10° NNE
Delta 2 Rocket 3.8 08:07:47 32° SW 08:08:44 37° S 08:12:40 10° ESE
ALOS 2.4 08:05:29 10° NNE 08:10:06 73° E 08:13:24 19° S
Cosmos 1437 Rocket 3.5 08:12:41 27° WSW 08:14:02 36° WNW 08:17:35 10° N
NOSS 3-2 (C) 4.3 08:12:44 15° WSW 08:16:32 34° NW 08:22:07 10° NNE
Cosmos 1680 Rocket 4.5 08:13:50 10° NW 08:18:13 28° W 08:20:14 21° SW
Alouette 2 Rocket 3.8 08:14:22 15° S 08:18:28 70° E 08:22:16 10° NNE
USA 267 3.3 08:12:25 10° NE 08:18:59 84° SE 08:24:01 18° SW
Cosmos 2228 4.4 08:17:32 10° NW 08:20:49 22° W 08:21:58 19° WSW
Cosmos 1818 4.3 08:16:26 10° NW 08:21:14 32° WSW 08:24:48 16° SSW
SAR-Lupe-1 4.0 08:24:53 10° NNE 08:28:29 83° ESE 08:31:07 17° S
Cosmos 1603 3.9 08:28:19 10° NNW 08:33:54 53° WSW 08:39:25 10° S
IDEFIX/ARIANE 42P 4.3 08:31:17 10° NNW 08:34:56 20° WNW 08:38:13 11° WSW
SL-16 R/B 2.6 08:29:38 10° S 08:35:49 62° WSW 08:42:00 10° NNW
CZ-2C R/B 3.8 08:37:16 16° SW 08:39:49 23° W 08:44:00 10° NW
CZ-2C R/B 4.3 08:36:45 10° N 08:41:17 28° WNW 08:44:53 13° WSW
Cosmos 2123 Rocket 4.0 08:35:24 10° NNW 08:41:34 70° W 08:47:43 10° S
Cosmos 1934 Rocket 4.1 08:36:19 12° SSW 08:42:06 65° W 08:48:28 10° N
SEDSat Delta rocket 4.2 08:41:06 17° SSW 08:42:48 21° S 08:45:55 10° SE
Cosmos 1943 4.1 08:38:53 10° NW 08:43:29 27° WSW 08:47:42 12° SSW
CZ-2D R/B 3.6 08:41:08 10° NNW 08:45:12 23° WNW 08:48:55 11° WSW
Envisat 3.0 08:47:33 10° NNE 08:52:39 89° W 08:57:42 10° SSW
USA 234 4.4 08:46:35 10° ESE 08:52:48 48° NNE 08:59:02 10° NW
Cosmos 921 Rocket 3.8 08:50:19 10° NW 08:54:01 30° W 08:57:38 10° SSW
Cosmos 1048 Rocket 4.2 08:50:03 10° NNW 08:55:06 50° WSW 09:00:11 10° S
ASTEX 1 4.3 08:52:23 12° SSW 08:56:10 30° W 09:00:26 10° NNW
Cosmos 1125 Rocket 3.9 08:57:57 11° SW 09:02:49 51° WNW 09:08:00 10° N
CZ-2C R/B 2.4 08:58:54 10° NNE 09:03:28 75° ESE 09:08:03 10° S
Cosmos 1238 Rocket 2.3 09:05:23 10° NNW 09:08:39 54° W 09:11:36 10° S
Lacrosse 5 4.3 09:07:10 10° SE 09:09:34 13° ESE 09:11:58 10° E
Cosmos-2242 3.5 09:05:26 10° N 09:09:44 66° E 09:13:59 10° SSE
ADEOS II 3.7 09:06:58 10° NNW 09:10:40 20° WNW 09:14:22 10° WSW
Cosmos 1812 3.5 09:08:24 10° NNW 09:11:32 29° W 09:14:39 10° SSW
Cosmos 2150 Rocket 4.1 09:10:09 10° SSW 09:15:20 73° WNW 09:20:39 10° NNE
Cosmos 2058 3.8 09:12:39 10° SW 09:16:18 32° WNW 09:19:59 10° NNW
Cosmos 1782 2.9 09:12:34 10° N 09:16:26 75° E 09:20:15 10° SSE
Cosmos 1833 Rocket 3.9 09:15:43 10° NNW 09:21:11 48° ENE 09:26:37 10° SE
YAOGAN 6 2.3 09:19:43 10° N 09:22:54 64° WNW 09:26:01 10° SSW
PAYLOAD A 4.1 09:20:12 10° N 09:25:26 79° WNW 09:30:47 10° SSW
Meteor 2-3 Rocket 3.9 09:22:22 10° S 09:28:09 86° W 09:34:00 10° N
